Time,TemperatureF,DewpointF,PressureIn,WindDirection,WindDirectionDegrees,WindSpeedMPH,WindSpeedGustMPH,Humidity,HourlyPrecipIn,Conditions,Clouds,dailyrainin,SoftwareType,DateUTC
2015-03-31 00:21:00,35.0,26.0,29.95,SE,133,0.0,7.0,69,-99.99,,,-99.99,,2015-03-31 04:21:00,
2015-03-31 00:31:00,35.0,26.0,29.95,SE,145,1.0,11.0,70,-99.99,,,-99.99,,2015-03-31 04:31:00,
2015-03-31 00:51:00,35.0,26.0,29.95,SSE,165,1.0,11.0,69,-99.99,,,-99.99,,2015-03-31 04:51:00,
2015-03-31 01:01:00,35.0,26.0,29.94,SE,145,0.0,8.0,69,-99.99,,,-99.99,,2015-03-31 05:01:00,
2015-03-31 01:11:00,35.0,26.0,29.93,SSW,200,0.0,6.0,69,-99.99,,,-99.99,,2015-03-31 05:11:00,
2015-03-31 01:21:00,35.0,26.0,29.93,SSW,200,0.0,6.0,69,-99.99,,,-99.99,,2015-03-31 05:21:00,
2015-03-31 01:31:00,36.0,26.0,29.92,SE,131,4.0,11.0,67,-99.99,,,-99.99,,2015-03-31 05:31:00,
2015-03-31 01:51:00,36.0,26.0,29.92,SSE,150,0.0,10.0,66,-99.99,,,-99.99,,2015-03-31 05:51:00,
2015-03-31 02:01:00,36.0,26.0,29.92,SSW,196,2.0,6.0,66,-99.99,,,-99.99,,2015-03-31 06:01:00,
2015-03-31 02:21:00,36.0,25.0,29.92,South,188,1.0,8.0,65,-99.99,,,-99.99,,2015-03-31 06:21:00,
2015-03-31 02:32:00,37.0,26.0,29.91,SSW,197,2.0,6.0,65,-99.99,,,-99.99,,2015-03-31 06:32:00,
2015-03-31 03:02:00,35.0,28.0,29.91,South,191,3.0,8.0,76,-99.99,,,-99.99,,2015-03-31 07:02:00,
2015-03-31 03:21:00,34.0,29.0,29.90,SSE,156,0.0,6.0,83,-99.99,,,-99.99,,2015-03-31 07:21:00,
2015-03-31 03:31:00,33.0,29.0,29.87,East,85,1.0,4.0,86,-99.99,,,-99.99,,2015-03-31 07:31:00,
2015-03-31 03:41:00,32.0,29.0,29.86,SE,140,2.0,8.0,88,-99.99,,,-99.99,,2015-03-31 07:41:00,
2015-03-31 04:01:00,32.0,29.0,29.83,ESE,114,3.0,9.0,88,-99.99,,,-99.99,,2015-03-31 08:01:00,
2015-03-31 04:11:00,32.0,29.0,29.83,SE,127,1.0,12.0,89,-99.99,,,-99.99,,2015-03-31 08:11:00,
2015-03-31 04:21:00,32.0,29.0,29.83,SE,127,1.0,12.0,89,-99.99,,,-99.99,,2015-03-31 08:21:00,
2015-03-31 04:31:00,32.0,29.0,29.83,East,101,1.0,8.0,89,-99.99,,,-99.99,,2015-03-31 08:31:00,
2015-03-31 04:41:00,32.0,29.0,29.81,ESE,105,1.0,7.0,90,-99.99,,,-99.99,,2015-03-31 08:41:00,
2015-03-31 04:51:00,32.0,29.0,29.81,ESE,105,1.0,7.0,90,-99.99,,,-99.99,,2015-03-31 08:51:00,
2015-03-31 05:01:00,32.0,29.0,29.81,SE,144,2.0,9.0,90,-99.99,,,-99.99,,2015-03-31 09:01:00,